| time (UTC) | temp F | wind direction | speed MPH | gust MPH | rain 1hr in | rain 24hr in | rain mn in | humidity % | barometer mb |
| 20260903211512 | 77 | 68 | 0.0 | 0.0 | 0.04 | 1.39 | 1.07 | 88 | 1013.6 |
| 20260903210104 | 76 | 61 | 0.0 | 0.0 | 0.06 | 1.39 | 1.07 | 88 | 1013.9 |
| 20260903204504 | 76 | 61 | 0.0 | 0.0 | 0.06 | 1.39 | 1.06 | 89 | 1014.1 |
| 20260903203037 | 76 | 62 | 0.0 | 0.0 | 0.06 | 1.38 | 1.05 | 89 | 1014.2 |
| 20260903201508 | 76 | 62 | 0.0 | 0.0 | 0.06 | 1.36 | 1.03 | 89 | 1014.4 |
| 20260903200040 | 76 | 62 | 0.0 | 0.0 | 0.05 | 1.34 | 1.01 | 89 | 1014.4 |
| 20260903194504 | 75 | 62 | 0.0 | 0.0 | 0.04 | 1.33 | 1.00 | 89 | 1014.1 |
| 20260903193031 | 75 | 62 | 0.0 | 0.0 | 0.04 | 1.32 | 0.99 | 89 | 1014.2 |
| 20260903191555 | 75 | 62 | 0.0 | 0.0 | 0.02 | 1.30 | 0.97 | 89 | 1014.3 |
| 20260903190024 | 75 | 62 | 0.0 | 0.0 | 0.08 | 1.29 | 0.96 | 89 | 1014.7 |
| 20260903184555 | 75 | 62 | 0.0 | 0.0 | 0.69 | 1.29 | 0.96 | 89 | 1015.2 |
| 20260903183015 | 75 | 62 | 0.0 | 3.0 | 0.83 | 1.28 | 0.95 | 89 | 1015.1 |
| 20260903181539 | 76 | 63 | 1.0 | 3.0 | 0.83 | 1.28 | 0.95 | 89 | 1015.0 |
| 20260903180007 | 76 | 72 | 1.0 | 6.0 | 0.76 | 1.21 | 0.89 | 89 | 1015.5 |
| 20260903174529 | 79 | 124 | 1.0 | 4.0 | 0.15 | 0.60 | 0.27 | 89 | 1015.2 |
| 20260903173049 | 81 | 5 | 0.0 | 6.0 | 0.00 | 0.45 | 0.12 | 88 | 1015.2 |
| 20260903171526 | 81 | 315 | 0.0 | 1.0 | 0.00 | 0.45 | 0.12 | 88 | 1015.0 |
| 20260903170059 | 81 | 315 | 0.0 | 0.0 | 0.00 | 0.45 | 0.12 | 87 | 1015.1 |
| 20260903164508 | 81 | 315 | 0.0 | 0.0 | 0.00 | 0.45 | 0.12 | 88 | 1015.1 |
| 20260903163043 | 81 | 315 | 0.0 | 0.0 | 0.00 | 0.45 | 0.12 | 87 | 1015.0 |
| 20260903161507 | 81 | 315 | 0.0 | 0.0 | 0.00 | 0.45 | 0.12 | 87 | 1015.0 |
| 20260903160038 | 81 | 315 | 0.0 | 1.0 | 0.00 | 0.45 | 0.12 | 88 | 1014.9 |
| 20260903154558 | 81 | 315 | 0.0 | 0.0 | 0.00 | 0.45 | 0.12 | 87 | 1014.9 |
| 20260903153031 | 81 | 315 | 0.0 | 1.0 | 0.00 | 0.45 | 0.12 | 87 | 1015.0 |
| 20260903151600 | 80 | 315 | 0.0 | 0.0 | 0.00 | 0.45 | 0.12 | 87 | 1015.0 |
| 20260903151501 | 80 | 315 | 0.0 | 0.0 | 0.00 | 0.45 | 0.12 | 87 | 1015.0 |
| 20260903150052 | 80 | 315 | 0.0 | 1.0 | 0.00 | 0.45 | 0.12 | 87 | 1015.2 |
| 20260903144512 | 80 | 315 | 0.0 | 0.0 | 0.00 | 0.45 | 0.12 | 88 | 1015.3 |
| 20260903143035 | 80 | 315 | 0.0 | 0.0 | 0.00 | 0.45 | 0.12 | 88 | 1015.5 |
| 20260903141511 | 80 | 315 | 0.0 | 0.0 | 0.00 | 0.45 | 0.12 | 88 | 1015.5 |
| 20260903140030 | 79 | 315 | 0.0 | 0.0 | 0.00 | 0.45 | 0.12 | 88 | 1015.3 |
| 20260903134553 | 79 | 315 | 0.0 | 0.0 | 0.00 | 0.45 | 0.12 | 88 | 1015.1 |
| 20260903133015 | 79 | 223 | 0.0 | 0.0 | 0.00 | 0.45 | 0.12 | 88 | 1015.1 |
| 20260903131540 | 79 | 180 | 0.0 | 0.0 | 0.00 | 0.45 | 0.12 | 88 | 1015.1 |
| 20260903130100 | 78 | 180 | 0.0 | 0.0 | 0.00 | 0.45 | 0.12 | 88 | 1015.0 |
| 20260903130002 | 78 | 180 | 0.0 | 0.0 | 0.00 | 0.45 | 0.12 | 88 | 1014.9 |
| 20260903124530 | 78 | 180 | 0.0 | 0.0 | 0.00 | 0.45 | 0.12 | 88 | 1014.9 |
| 20260903123049 | 78 | 180 | 0.0 | 0.0 | 0.00 | 0.45 | 0.12 | 88 | 1014.6 |
| 20260903121542 | 78 | 180 | 0.0 | 0.0 | 0.00 | 0.45 | 0.12 | 88 | 1014.3 |
| 20260903120044 | 78 | 180 | 0.0 | 0.0 | 0.01 | 0.45 | 0.12 | 88 | 1014.0 |
| 20260903114513 | 78 | 180 | 0.0 | 0.0 | 0.01 | 0.46 | 0.12 | 88 | 1014.0 |
| 20260903113048 | 78 | 180 | 0.0 | 0.0 | 0.01 | 0.46 | 0.12 | 88 | 1014.0 |
| 20260903111512 | 78 | 180 | 0.0 | 0.0 | 0.01 | 0.46 | 0.12 | 88 | 1013.9 |
| 20260903110039 | 78 | 180 | 0.0 | 0.0 | 0.00 | 0.45 | 0.11 | 88 | 1013.9 |
| 20260903104505 | 78 | 180 | 0.0 | 0.0 | 0.00 | 0.54 | 0.11 | 88 | 1013.6 |
| 20260903103036 | 78 | 180 | 0.0 | 0.0 | 0.00 | 0.54 | 0.11 | 88 | 1013.6 |
| 20260903101504 | 78 | 180 | 0.0 | 0.0 | 0.00 | 0.54 | 0.11 | 88 | 1013.4 |
| 20260903100040 | 78 | 180 | 0.0 | 0.0 | 0.00 | 0.54 | 0.11 | 88 | 1013.4 |
| 20260903094602 | 78 | 180 | 0.0 | 1.0 | 0.00 | 0.54 | 0.11 | 88 | 1013.6 |
| 20260903093027 | 78 | 180 | 0.0 | 0.0 | 0.00 | 0.54 | 0.11 | 88 | 1013.5 |
| 20260903091555 | 78 | 180 | 0.0 | 0.0 | 0.00 | 0.54 | 0.11 | 88 | 1013.5 |
| 20260903090020 | 78 | 180 | 0.0 | 0.0 | 0.00 | 0.54 | 0.11 | 88 | 1013.4 |
| 20260903084547 | 78 | 180 | 0.0 | 0.0 | 0.00 | 0.54 | 0.11 | 88 | 1013.4 |
| 20260903083018 | 78 | 180 | 0.0 | 0.0 | 0.00 | 0.54 | 0.11 | 89 | 1013.3 |
| 20260903081550 | 78 | 180 | 0.0 | 0.0 | 0.00 | 0.54 | 0.11 | 89 | 1013.3 |
| 20260903080018 | 78 | 180 | 0.0 | 0.0 | 0.00 | 0.54 | 0.11 | 89 | 1013.2 |
| 20260903074547 | 78 | 180 | 0.0 | 0.0 | 0.00 | 0.54 | 0.11 | 89 | 1013.1 |
| 20260903073023 | 77 | 180 | 0.0 | 0.0 | 0.00 | 0.54 | 0.11 | 89 | 1013.1 |
| 20260903071554 | 77 | 180 | 0.0 | 0.0 | 0.00 | 0.54 | 0.11 | 89 | 1013.1 |
| 20260903070022 | 77 | 180 | 0.0 | 0.0 | 0.00 | 0.54 | 0.11 | 89 | 1013.2 |
| 20260903064555 | 77 | 180 | 0.0 | 0.0 | 0.01 | 0.54 | 0.11 | 89 | 1013.3 |
| 20260903063026 | 77 | 180 | 0.0 | 0.0 | 0.03 | 0.54 | 0.11 | 89 | 1013.4 |
| 20260903061600 | 77 | 180 | 0.0 | 1.0 | 0.09 | 0.54 | 0.11 | 89 | 1013.4 |
| 20260903060025 | 76 | 180 | 0.0 | 0.0 | 0.11 | 0.54 | 0.11 | 89 | 1013.7 |
| 20260903054547 | 77 | 180 | 0.0 | 1.0 | 0.10 | 0.53 | 0.10 | 89 | 1014.0 |
| 20260903053018 | 77 | 180 | 0.0 | 1.0 | 0.08 | 0.51 | 0.08 | 89 | 1014.5 |
| 20260903051546 | 77 | 185 | 0.0 | 2.0 | 0.02 | 0.45 | 0.02 | 89 | 1014.4 |
| 20260903050109 | 77 | 198 | 0.0 | 5.0 | 0.00 | 0.43 | 0.00 | 89 | 1014.6 |
| 20260903044511 | 77 | 173 | 0.0 | 0.0 | 0.00 | 0.43 | 0.43 | 89 | 1014.8 |
| 20260903043037 | 77 | 173 | 0.0 | 0.0 | 0.00 | 0.43 | 0.43 | 89 | 1015.0 |
| 20260903041513 | 77 | 173 | 0.0 | 0.0 | 0.00 | 0.43 | 0.43 | 89 | 1015.1 |
| 20260903040039 | 77 | 173 | 0.0 | 1.0 | 0.00 | 0.43 | 0.43 | 89 | 1014.6 |
| 20260903034513 | 77 | 173 | 0.0 | 0.0 | 0.00 | 0.43 | 0.43 | 89 | 1014.5 |
| 20260903033036 | 77 | 173 | 0.0 | 1.0 | 0.00 | 0.43 | 0.43 | 89 | 1014.4 |
| 20260903031508 | 77 | 173 | 0.0 | 1.0 | 0.00 | 0.43 | 0.43 | 89 | 1014.2 |
| 20260903030041 | 77 | 173 | 0.0 | 0.0 | 0.00 | 0.43 | 0.43 | 89 | 1014.3 |
| 20260903024558 | 77 | 173 | 0.0 | 1.0 | 0.00 | 0.43 | 0.43 | 89 | 1013.9 |
| 20260903023036 | 77 | 173 | 0.0 | 2.0 | 0.01 | 0.43 | 0.43 | 89 | 1013.9 |
| 20260903021504 | 77 | 173 | 0.0 | 2.0 | 0.02 | 0.43 | 0.43 | 89 | 1013.6 |
| 20260903020038 | 77 | 173 | 0.0 | 2.0 | 0.03 | 0.43 | 0.43 | 89 | 1013.1 |
| 20260903014505 | 77 | 173 | 0.0 | 3.0 | 0.04 | 0.43 | 0.43 | 88 | 1013.6 |
| 20260903013031 | 78 | 173 | 0.0 | 5.0 | 0.15 | 0.42 | 0.42 | 88 | 1012.6 |
| 20260903011605 | 78 | 40 | 1.0 | 3.0 | 0.23 | 0.41 | 0.41 | 88 | 1013.5 |
| 20260903010030 | 78 | 18 | 0.0 | 1.0 | 0.22 | 0.40 | 0.40 | 88 | 1013.1 |
| 20260903004548 | 79 | 18 | 0.0 | 3.0 | 0.21 | 0.39 | 0.39 | 88 | 1012.4 |
| 20260903003014 | 79 | 18 | 1.0 | 3.0 | 0.08 | 0.25 | 0.26 | 87 | 1012.6 |
| 20260903001545 | 80 | 11 | 1.0 | 3.0 | 0.01 | 0.18 | 0.18 | 86 | 1013.0 |
| 20260903000030 | 81 | 107 | 0.0 | 2.0 | 0.01 | 0.18 | 0.18 | 86 | 1012.3 |
| 20260902234544 | 81 | 107 | 0.0 | 2.0 | 0.03 | 0.18 | 0.18 | 85 | 1012.5 |
| 20260902233012 | 82 | 107 | 0.0 | 2.0 | 0.04 | 0.17 | 0.17 | 84 | 1012.7 |
| 20260902231538 | 82 | 107 | 0.0 | 2.0 | 0.04 | 0.17 | 0.17 | 83 | 1012.2 |
| 20260902230008 | 83 | 107 | 0.0 | 2.0 | 0.05 | 0.17 | 0.17 | 82 | 1012.3 |
| 20260902224529 | 84 | 32 | 1.0 | 3.0 | 0.03 | 0.23 | 0.15 | 80 | 1012.2 |
| 20260902223107 | 84 | 32 | 2.0 | 4.0 | 0.01 | 0.21 | 0.13 | 81 | 1012.0 |
| 20260902221530 | 84 | 187 | 0.0 | 0.0 | 0.01 | 0.21 | 0.13 | 79 | 1011.9 |
| 20260902220024 | 84 | 187 | 0.0 | 1.0 | 0.01 | 0.20 | 0.12 | 77 | 1011.7 |
| 20260902214559 | 85 | 187 | 0.0 | 0.0 | 0.01 | 0.53 | 0.12 | 75 | 1011.7 |
| 20260902213015 | 86 | 187 | 0.0 | 1.0 | 0.01 | 0.53 | 0.12 | 72 | 1011.5 |